Location: Saluda
(35.2377°N, 82.3468°W)
Time: 19:23:53
(UTC+00:00)

Vanguard 3 - Pass Details

Date: 13 October 2022
Orbit: 509 x 3255 km, 33.3° (Epoch: 01 December)

Event Time Altitude Azimuth Distance (km) Brightness Sun altitude
Rises 12:02:21 0° 260° (W) 2,917 9.4 4.9°
Reaches altitude 10° 12:04:50 10° 258° (WSW) 1,845 8.5 5.4°
Maximum altitude 12:08:43 65° 176° (S) 560 6.6 6.1°
Drops below altitude 10° 12:12:26 10° 94° (E) 1,765 11.2 6.9°
Sets 12:14:46 0° 91° (E) 2,774 11.8 7.3°
